GFSSE_850_thetae_210.txt.gz
Theta_e
323 322 316 316 321 328 328 321 325 326 334 336 336 334 332 336 336 335 333 329 314 312 311 310 310 311 311 311 312 310 309 310 310 311 314 322 323 318 313 315 320 323 323
329 321 316 315 326 331 330 329 327 324 326 337 335 334 337 337 336 334 332 324 314 312 310 310 309 308 310 312 312 312 311 310 310 310 311 319 322 312 310 310 310 312 315
330 314 314 322 329 332 331 330 326 323 322 327 335 336 336 335 334 332 328 317 313 311 309 309 309 309 312 314 313 313 313 312 311 311 310 319 319 311 310 310 310 310 309
322 317 313 330 331 332 330 329 328 324 321 319 326 335 334 333 330 327 314 310 311 310 309 309 309 309 310 312 313 313 313 312 312 312 316 317 320 313 313 313 314 312 310
317 323 313 329 330 330 323 323 321 318 314 312 311 316 322 323 315 313 309 309 311 311 310 310 310 310 311 311 312 312 313 314 314 313 313 313 318 317 313 314 315 316 315
318 329 321 320 328 327 324 318 313 311 310 309 309 308 308 309 310 309 309 310 310 315 310 310 311 311 311 311 311 312 312 313 313 317 319 317 314 313 322 314 313 315 317
316 327 329 322 315 318 318 315 313 311 310 309 309 309 309 309 309 310 311 311 311 311 311 311 311 311 312 313 315 316 315 313 313 315 315 315 315 317 316 314 314 314 315
316 321 331 329 325 321 316 313 311 310 310 310 310 310 310 311 311 311 312 312 312 312 313 315 317 319 321 321 321 321 320 318 317 318 318 319 319 320 320 320 319 319 318
317 316 329 327 326 321 314 312 311 312 313 313 314 314 315 316 316 317 317 319 319 320 320 321 321 322 322 322 322 322 321 321 322 322 320 322 321 321 321 322 322 321 321
320 317 315 321 325 320 314 312 313 314 317 319 322 322 322 322 322 322 321 322 322 323 322 322 321 321 321 321 321 320 319 321 323 323 322 321 316 318 319 320 323 322 321
326 323 315 316 320 319 315 314 315 317 320 323 323 322 321 319 318 316 314 312 311 311 312 312 313 312 312 312 313 315 318 322 321 322 322 319 317 318 317 321 322 324 323
328 328 325 324 326 323 322 320 320 321 323 323 321 319 318 316 315 315 314 313 313 313 313 314 314 315 315 317 321 321 322 322 322 322 322 319 320 319 317 316 319 320 321
328 326 325 326 327 325 323 323 324 323 321 319 316 315 315 315 315 315 315 315 315 315 316 316 317 317 318 318 320 322 321 322 323 323 323 321 322 322 321 319 317 316 317
328 327 324 324 324 324 324 324 324 322 320 317 315 315 315 316 316 316 316 316 316 316 317 317 317 318 318 319 319 319 319 319 322 322 323 321 322 323 323 322 320 317 317
327 327 327 323 323 322 323 323 323 322 320 317 316 317 318 318 318 319 320 321 321 322 323 323 323 322 321 320 320 319 318 319 318 319 318 319 323 324 324 324 322 320 318
330 328 327 325 322 321 323 324 324 322 318 317 318 319 319 321 322 323 325 325 327 328 329 329 329 328 328 328 326 325 324 321 318 318 317 315 314 318 322 324 323 322 317
332 332 331 328 323 322 324 325 323 321 321 321 322 322 323 323 324 326 327 328 330 331 331 331 330 330 330 330 330 329 328 327 325 319 315 313 313 313 314 318 323 323 320
332 331 330 328 325 324 325 325 324 324 325 326 327 328 328 328 329 330 331 330 330 330 328 328 328 327 328 328 328 327 327 326 325 321 318 314 313 313 314 313 314 318 321
333 332 332 331 330 329 329 329 329 329 329 330 330 330 331 331 331 330 329 328 328 327 327 326 326 323 321 324 324 323 324 322 321 320 319 316 315 314 315 314 314 315 319
333 333 333 333 333 333 333 333 332 332 333 333 333 332 331 331 330 330 328 325 324 323 323 321 319 319 320 320 321 320 319 318 318 319 319 317 315 314 315 316 314 317 318
334 334 334 334 333 334 334 334 334 334 334 333 331 330 330 329 329 326 326 325 324 318 314 314 315 315 314 317 315 319 318 319 320 319 319 316 316 315 316 317 316 315 316
334 334 334 334 334 334 334 334 334 334 333 331 330 330 330 327 326 323 315 310 310 310 310 310 311 312 312 315 317 316 317 317 319 318 317 318 317 318 316 318 318 317 314
334 334 334 334 334 334 334 333 333 332 330 329 326 321 320 315 311 310 310 310 310 310 310 311 311 312 313 312 314 316 316 316 316 316 317 317 317 316 317 316 316 317 316
330 331 332 332 332 331 331 331 330 329 326 322 312 309 310 310 310 309 309 309 309 309 309 310 310 310 310 310 311 311 311 313 315 316 315 315 315 316 316 316 316 316 313
322 323 324 325 325 324 323 317 314 312 310 310 309 308 307 307 307 307 307 307 306 306 306 306 306 306 306 305 306 306 307 308 310 313 313 313 313 312 313 313 313 316 313
313 313 313 315 311 310 310 309 309 308 306 307 306 305 305 304 304 304 303 303 303 302 302 302 302 302 302 302 302 303 303 305 306 307 308 309 309 309 311 311 311 312 314

GFSSE_850_thetae_216.txt.gz
Theta_e
333 333 326 314 316 326 323 325 334 336 336 328 332 335 335 335 333 329 319 310 309 312 312 312 313 310 310 310 309 309 309 309 310 313 314 310 309 310 311 311 310 311 311
333 328 323 318 326 324 322 325 333 336 335 332 332 336 336 335 333 329 314 310 309 310 311 310 310 310 311 311 311 311 311 310 311 317 319 313 310 310 310 310 310 310 310
329 320 318 331 331 328 327 325 325 337 335 335 337 337 334 333 326 320 310 313 315 312 310 310 310 311 311 311 312 312 311 311 312 319 322 321 316 311 311 311 312 311 310
324 314 325 328 331 330 327 325 323 325 336 337 336 335 334 332 320 311 309 312 310 310 310 310 311 311 311 311 311 312 312 313 315 319 321 321 323 318 312 312 312 314 314
324 324 329 329 331 330 329 327 325 322 320 328 333 333 330 320 314 309 317 321 312 310 310 311 311 311 311 312 312 312 313 313 319 321 322 317 320 318 314 313 313 313 314
327 328 331 332 330 326 326 323 317 314 312 311 312 312 310 311 309 310 310 311 313 311 311 312 314 317 319 320 321 320 318 314 319 321 319 318 318 317 318 319 317 316 316
327 325 331 331 330 324 318 317 312 311 310 309 308 308 309 309 310 311 311 311 312 314 316 319 320 320 321 320 320 320 320 319 323 325 322 322 321 321 319 319 321 320 319
331 322 329 330 329 326 320 315 312 311 310 309 309 309 310 311 312 314 315 317 318 319 320 319 318 316 315 313 312 311 312 316 322 325 324 323 324 319 313 315 319 321 321
331 322 322 322 319 318 316 313 311 310 310 310 311 313 316 319 320 320 319 317 316 315 315 315 314 312 312 312 312 313 312 315 319 323 322 323 320 315 316 316 321 321 322
330 332 327 326 324 321 315 311 311 313 314 318 321 321 321 319 317 313 311 311 311 312 313 313 314 315 316 319 319 319 320 321 322 322 322 322 322 318 319 319 316 317 321
330 332 331 330 328 329 316 312 313 317 321 322 322 320 316 313 313 312 313 314 315 315 316 316 317 317 318 318 320 319 321 322 321 322 322 322 321 319 320 321 321 319 316
328 329 330 329 329 329 324 314 316 320 323 323 324 318 319 316 314 314 315 316 316 316 317 317 317 318 318 318 320 319 320 322 318 321 321 323 320 315 315 317 321 322 322
329 328 328 331 330 327 326 319 324 324 330 325 320 317 316 315 316 317 317 319 319 319 321 322 323 325 325 326 326 325 323 322 321 320 320 320 320 318 314 314 315 317 320
332 330 329 329 329 331 326 326 329 328 326 323 319 316 316 318 320 321 324 324 326 326 326 328 329 330 329 329 329 328 328 328 328 327 327 326 323 320 318 316 314 314 316
332 330 330 331 328 328 331 328 331 330 325 327 323 318 318 321 324 326 328 329 330 330 329 329 328 327 327 326 326 328 327 326 327 328 328 328 327 325 323 321 318 315 315
331 328 324 329 331 330 328 332 330 328 330 324 322 322 321 322 327 330 330 329 330 330 329 329 329 328 327 326 326 326 323 322 325 325 326 327 327 326 324 322 321 319 317
332 328 327 325 330 331 328 328 328 329 328 325 325 324 326 332 334 333 330 329 330 329 329 328 328 328 326 322 319 320 321 318 321 322 324 325 323 322 322 323 322 320 319
330 333 331 332 330 327 325 325 326 330 325 327 330 330 331 332 330 333 332 332 332 327 325 324 322 318 317 318 319 317 319 316 316 318 320 321 322 323 323 323 322 320 318
334 334 334 332 330 327 325 328 329 330 330 330 330 329 329 330 332 331 330 329 326 323 319 316 313 312 312 313 314 313 312 312 314 318 319 320 321 321 320 318 318 317 317
334 334 332 332 330 329 328 329 331 330 329 329 329 329 331 331 330 329 327 324 321 312 310 310 310 311 311 311 311 310 309 311 316 320 319 318 315 318 318 317 317 314 314
333 333 333 332 333 332 332 332 331 329 330 329 328 328 329 329 328 321 314 310 310 310 310 309 309 308 308 308 308 307 307 308 315 316 318 316 312 313 316 314 312 312 313
334 334 333 333 333 332 332 331 331 330 329 329 329 328 326 322 315 311 310 308 308 307 307 306 306 305 305 305 307 309 308 307 316 313 306 305 310 309 308 309 308 307 308
333 332 333 332 332 332 331 331 330 331 330 329 326 323 314 310 308 307 306 306 304 304 304 304 304 303 302 302 303 311 310 310 303 302 300 305 301 304 308 299 298 298 299
330 329 330 331 331 332 331 331 331 330 326 322 317 312 307 305 304 304 302 304 305 304 303 301 299 297 296 297 297 297 297 301 304 305 305 297 301 298 297 297 297 297 297
326 327 328 327 328 329 329 328 327 323 315 307 304 303 301 301 304 309 310 309 307 304 301 298 297 296 296 296 295 295 295 295 298 297 298 296 295 295 295 294 296 295 297
320 320 320 320 320 317 317 313 312 306 303 303 303 304 307 309 310 310 309 308 304 301 300 298 297 296 295 294 294 294 293 292 292 292 292 291 291 292 292 294 293 297 301

GFSSE_850_thetae_219.txt.gz
Theta_e
334 331 314 316 327 325 327 334 336 334 327 330 334 333 335 333 329 316 309 310 316 317 319 321 315 312 310 311 310 310 310 313 316 317 316 314 310 309 310 309 309 310 310
333 327 314 320 321 321 325 335 336 336 329 332 336 336 334 331 322 311 310 310 313 316 316 312 311 311 311 311 311 311 311 315 319 318 317 318 317 312 312 312 311 310 310
331 324 317 329 322 323 324 331 335 334 334 336 337 335 331 327 314 310 312 315 309 309 310 310 310 311 311 311 312 312 312 313 316 319 318 317 316 313 312 312 313 313 313
327 320 331 332 328 326 324 324 334 336 336 337 336 333 330 318 311 309 309 309 310 310 310 311 311 311 311 312 312 312 312 314 316 317 317 317 315 315 314 313 313 313 314
317 320 329 331 329 326 324 324 322 328 335 335 334 331 321 310 308 310 311 310 311 311 311 312 314 316 318 319 319 318 315 315 318 318 317 316 316 317 317 318 317 316 315
315 328 327 331 329 327 326 323 321 318 317 317 316 312 309 309 309 310 311 312 312 314 316 319 320 320 320 320 320 320 319 317 319 321 321 319 319 320 317 317 318 319 318
326 329 331 330 326 321 320 314 312 311 309 309 308 308 309 309 311 311 313 314 316 318 318 317 316 314 312 311 311 311 315 319 321 322 323 320 318 315 312 311 313 318 319
324 330 331 330 327 320 317 313 311 310 309 308 309 309 310 311 314 317 318 317 315 314 313 312 311 312 312 313 314 313 310 313 320 323 320 320 320 318 317 317 314 316 319
325 329 330 329 327 323 316 312 310 309 309 310 311 312 317 320 319 317 314 312 312 312 313 314 315 316 318 318 318 318 318 319 319 320 321 321 321 320 319 320 318 316 317
328 323 327 323 319 318 314 311 311 312 312 316 320 321 319 316 312 311 312 313 314 315 316 317 317 318 317 317 318 319 320 320 319 320 321 321 321 321 318 319 321 321 319
329 325 326 320 322 317 313 311 313 316 321 322 320 317 314 312 313 314 314 315 316 316 317 317 317 318 319 320 320 319 319 320 319 320 322 321 322 321 318 316 318 320 322
329 329 328 329 324 319 313 312 317 322 323 321 317 316 313 314 315 316 317 318 318 318 320 322 324 326 327 328 328 329 327 327 326 324 322 322 322 321 320 319 316 315 315
331 330 330 326 328 322 315 315 319 323 321 318 316 315 315 316 317 317 318 320 322 324 325 326 328 327 328 327 326 326 328 327 326 327 327 327 326 326 325 323 321 319 316
327 328 328 329 328 324 323 321 324 325 323 321 317 315 316 317 319 320 323 326 326 328 329 328 328 329 328 328 327 326 327 327 326 325 325 325 326 326 325 324 323 322 320
330 328 327 330 328 328 327 328 329 329 324 319 319 317 318 319 322 324 328 329 329 328 329 329 329 329 328 326 324 325 324 323 320 323 324 323 324 324 325 323 322 322 322
332 330 329 329 328 327 329 330 331 328 324 322 319 319 321 323 326 328 329 328 328 328 329 329 328 326 319 316 313 314 315 317 318 318 321 322 322 322 322 322 321 322 321
331 331 328 329 329 329 329 331 329 325 326 322 323 326 327 330 329 329 328 328 329 329 328 325 321 315 311 310 310 310 311 311 311 314 316 318 320 321 322 322 322 320 318
332 330 326 328 330 331 329 328 327 326 326 329 329 328 329 328 329 328 328 329 329 326 325 320 311 310 310 310 310 310 309 309 310 314 318 319 320 319 320 319 317 317 318
331 330 330 329 330 329 327 326 327 330 328 328 328 328 328 328 328 329 331 328 325 322 313 310 310 310 309 308 308 307 307 308 313 316 319 320 319 316 316 316 315 315 313
333 333 333 332 331 328 326 329 329 328 329 328 328 328 327 327 327 327 327 323 315 310 310 309 308 307 306 307 308 308 307 306 309 317 319 318 317 311 313 316 310 311 310
335 334 333 331 329 328 328 329 328 328 328 328 328 328 327 328 325 321 316 311 309 308 307 306 305 306 305 304 306 309 305 305 312 315 313 306 303 308 301 306 304 298 298
334 334 333 333 332 331 330 330 329 329 329 330 329 328 326 322 314 310 308 306 305 305 305 306 308 307 302 299 299 302 301 303 309 299 299 300 302 299 302 298 296 296 297
333 333 334 334 333 332 332 332 331 331 330 328 326 321 318 309 306 304 303 304 306 305 309 305 303 300 300 297 297 298 297 300 297 299 298 301 297 296 295 295 295 294 295
334 333 333 333 333 332 331 331 331 330 328 322 315 309 303 303 302 306 308 307 307 305 300 300 299 298 296 297 296 295 294 295 296 298 296 295 294 294 293 294 293 294 297
329 329 329 330 330 330 330 328 328 323 315 307 305 303 301 306 311 311 310 308 306 301 298 299 297 295 296 295 295 295 294 292 295 290 292 291 292 292 292 292 293 296 298
325 325 326 325 326 322 321 318 314 309 303 301 306 310 312 312 311 311 311 310 309 304 297 295 296 296 295 293 292 291 290 290 289 288 288 288 288 289 291 290 292 291 293

GFSSE_850_thetae_222.txt.gz
Theta_e
332 323 313 324 323 329 333 334 328 325 327 335 334 334 332 321 315 309 309 312 318 322 318 315 313 310 311 311 310 311 313 314 315 316 313 314 311 311 311 311 310 310 310
332 319 318 329 325 326 335 335 334 328 330 335 335 334 326 315 309 308 308 309 310 311 310 310 311 311 311 312 311 311 314 315 315 316 318 317 314 311 312 312 312 312 312
331 315 322 322 320 326 335 335 335 329 334 336 336 332 324 312 308 309 309 309 310 310 310 310 311 311 311 312 312 313 315 317 318 316 314 314 315 314 314 313 313 313 314
328 316 330 324 320 324 332 335 334 334 336 336 334 331 320 310 309 309 309 310 310 311 311 312 313 314 316 316 315 313 316 318 318 318 317 316 316 317 317 317 316 315 315
326 324 332 326 324 324 324 332 336 336 336 335 333 327 311 309 311 311 311 311 312 313 316 319 320 320 320 320 320 318 316 318 319 319 319 318 318 318 314 313 316 317 317
323 329 331 329 326 324 324 323 323 331 332 328 321 311 309 309 311 311 313 314 316 318 318 317 314 312 311 310 310 313 317 318 318 317 316 316 313 311 314 314 311 314 320
318 330 331 328 327 325 323 320 318 314 312 309 308 308 309 310 312 313 315 316 316 315 313 312 312 312 314 315 314 310 310 315 318 319 317 317 318 318 318 319 317 314 314
323 330 330 327 322 321 316 312 311 309 309 308 308 309 311 313 317 317 315 313 312 313 314 315 316 317 318 317 318 317 317 317 318 319 319 319 319 320 319 319 320 319 316
327 329 330 327 320 316 315 311 310 309 309 309 310 312 318 319 316 312 312 313 314 315 316 317 318 318 318 318 318 319 319 318 318 319 320 320 321 322 322 318 318 320 321
324 330 329 328 324 318 313 310 310 310 310 313 319 320 317 313 311 313 314 315 316 317 317 317 318 320 323 324 324 324 323 323 322 320 320 320 321 322 322 321 318 316 317
325 328 328 326 319 315 311 310 312 314 319 321 319 316 312 312 313 315 316 316 317 318 319 321 324 326 327 327 326 326 326 327 327 327 326 324 323 323 323 322 321 320 317
324 322 322 318 318 314 311 312 315 321 321 319 316 313 313 314 315 316 317 318 321 323 324 326 326 326 326 326 325 325 325 327 326 326 326 326 326 326 325 325 324 322 321
327 327 327 326 321 317 312 315 320 322 321 316 314 313 314 315 316 318 320 322 324 325 327 328 327 328 328 328 327 325 325 326 326 324 323 324 324 323 324 324 323 323 322
328 327 329 325 323 321 315 318 321 322 317 315 315 315 315 317 320 322 325 325 328 328 327 327 328 328 328 327 326 323 323 322 322 318 321 324 322 322 323 323 323 322 322
330 329 329 327 326 323 321 324 325 322 319 318 318 317 318 320 322 325 327 327 327 327 327 328 328 327 326 320 314 312 312 312 315 316 316 320 321 321 321 320 320 320 321
327 327 327 329 328 324 328 326 326 327 324 320 320 321 322 324 326 328 328 327 327 327 328 328 326 321 312 311 310 310 310 310 310 312 314 318 319 320 321 319 319 319 318
329 328 327 328 328 327 328 329 329 329 326 325 325 328 326 327 327 328 327 327 327 327 327 325 321 311 310 309 309 309 308 308 308 312 317 318 320 321 320 319 317 316 316
331 331 329 328 327 329 330 329 330 329 328 328 327 327 326 326 327 326 327 327 327 326 324 316 310 309 309 308 307 307 306 308 312 313 318 319 320 319 315 317 316 315 312
331 331 330 329 329 330 330 330 330 328 327 326 326 326 325 326 326 326 326 327 327 321 312 310 309 308 307 307 310 309 306 306 309 317 318 319 318 316 311 310 314 310 305
331 331 328 327 330 330 330 328 328 328 326 326 326 326 326 326 326 325 326 325 317 310 309 307 305 306 308 309 310 309 305 304 307 313 313 312 308 305 304 300 302 301 298
332 332 332 330 330 331 329 328 327 326 326 326 327 326 326 326 326 326 320 313 310 307 305 305 307 306 307 306 307 309 304 304 313 303 300 299 303 299 299 296 296 296 296
333 333 333 333 332 330 329 327 327 327 327 328 327 327 327 326 323 316 310 308 304 305 307 309 309 304 301 300 298 299 299 303 314 299 299 299 296 295 294 294 294 294 295
335 334 334 333 331 330 329 328 328 328 328 328 326 324 317 314 309 303 304 304 308 308 308 306 305 303 298 296 296 296 296 297 296 301 297 295 293 293 293 292 293 295 298
334 334 333 333 332 331 331 331 330 330 328 321 318 314 307 302 303 308 310 311 310 310 309 308 300 297 296 296 295 294 293 293 294 295 294 293 292 290 292 290 295 294 295
332 332 333 333 333 332 332 331 330 327 320 314 302 301 305 308 311 311 310 310 309 308 308 304 296 297 295 294 293 292 291 291 291 289 290 291 291 289 291 290 292 289 291
330 328 328 329 329 328 328 323 323 315 307 305 308 311 311 310 310 310 311 311 309 300 296 295 295 294 293 291 290 290 289 288 287 286 286 285 287 288 289 289 288 290 289